User: anonymous   Login
Location: Caltech
(34.1382°N, 118.1253°W)
Time: 05:24:41
(UTC-08:00)
Language:

Uribyol 2 - Orbit

View from above orbital plane
View from above orbital plane
View from above satellite
View from above satellite

Ground track
Ground track

The orbit data is extracted from the following two-line orbital elements,

1 22828U 93061F   14332.02719216  .00000290  00000-0  12872-3 0  7691
2 22828 098.6692 276.8233 0010810 136.8573 223.3458 14.30394202 72664
Epoch (UTC): 28 November 2014 00:39:09
Eccentricity: 0.0010810
inclination: 98.6692°
perigee height: 782 km
apogee height: 798 km
right ascension of ascending node: 276.8233°
argument of perigee: 136.8573°
revolutions per day: 14.30394202
mean anomaly at epoch: 223.3458°
orbit number at epoch: 7266

The dashed part of the orbit path shows where the satellite is in the earth's shadow,  

DLR